Fresno Yosemite International Airport
KFAT : now visible

Airfield :











YOU CAN JOIN US ON...

 
LOGIN :

Register | Disclaimer

   EN    FR    IT 

 









Legend :    VFR   Marginal VFR   IFR   Intensive IFR   Very Intensive IFR
Visi :
Ceiling :
>= 8 km
>= 3000ft
5 to 8 km
1000 to 3000 ft
1500m to 5 km
500 to 1000 ft
800 to 1500m
200 to 500 ft
< 800m
< 200 ft
Symbols :   Thunderstorms  Fog  Heavy snow  Heavy precipitations  Wind > 20 kt






- Airport Elevation : 336 ft
- IATA code : FAT


KFAT - Fresno Yosemite International

CURRENT METAR :
  • 172053Z 11005KT 10SM BKN200 16/06 A3005 RMK AO2 SLP173 T01610061 58019

EXPIRED METARs :
  • 171953Z 12004KT 10SM BKN200 15/07 A3008 RMK AO2 SLP184 T01500067
  • 171853Z 13007KT 10SM BKN200 13/07 A3010 RMK AO2 SLP191 T01330067

TAF KFAT
Valid from the 17 at 18:00 until the 18 at 18:00 UTC


171720Z 1718/1818 VRB04KT P6SM BKN200



MET'MAP, your aeronautical weather chart ! - Copyright ORBIFLY December 2007 - Disclaimer

ORBIFLY MET'MAP TEAM :

Programming & Development : Alexandra Zaïnal
Concept & original design : Baudouin d'Aumeries
Assistance for programming : Marc-Olivier Méhu
Technical & hardware support : Manuel Goepfert

Contact : metmap@orbifly.com




SOURCES & CREDITS :

   NOAA       Earth
Advisory